This demonstration page uses our WeatherBlox Daily Observations layout. Learn more.

40.92945, -100.16068

Hourly Observations for September 24, 2018

Temp ( °F °C ) Dew Point ( °F °C ) Humidity (%) Winds ( mph kmh ) Pressure ( in mb ) Visibility ( mi km ) Precip ( " mm )
12:15 am 00:15 Clear 65 18.1 55 12.5 70 70 SSE 16 26 29.8 1009 10 16.0934 0 0
12:35 am 00:35 Clear 64 17.9 55 12.5 71 71 SSE 15 24 29.8 1009 10 16.0934 0 0
12:55 am 00:55 Clear 64 17.6 55 12.6 73 73 SSE 17 28 29.8 1009 10 16.0934 0 0
1:15 am 01:15 Clear 64 17.7 55 12.6 72 72 SSE 17 28 29.8 1009 10 16.0934 0 0
1:35 am 01:35 Clear 64 17.7 55 12.7 73 73 SSE 20 31 29.77 1008 10 16.0934 0 0
1:55 am 01:55 Clear 64 17.5 55 12.8 74 74 SSE 16 26 29.77 1008 10 16.0934 0 0
2:15 am 02:15 Clear 63 17.1 55 12.7 75 75 SSE 15 24 29.77 1008 10 16.0934 0 0
2:35 am 02:35 Clear 63 17 55 13 77 77 SSE 13 20 29.77 1008 10 16.0934 0 0
2:55 am 02:55 Clear 62 16.7 55 13 79 79 SSE 16 26 29.77 1008 10 16.0934 0 0
3:15 am 03:15 Clear 62 16.5 55 13 80 80 S 15 24 29.77 1008 10 16.0934 0 0
3:35 am 03:35 Clear 61 16.1 55 13 82 82 S 14 22 29.77 1008 10 16.0934 0 0
3:55 am 03:55 Clear 60 15.8 56 13.1 84 84 S 12 19 29.77 1008 10 16.0934 0 0
4:15 am 04:15 Clear 60 15.5 56 13.1 86 86 S 14 22 29.74 1007 10 16.0934 0 0
4:35 am 04:35 Clear 60 15.3 56 13.2 87 87 S 14 22 29.74 1007 10 16.0934 0 0
4:55 am 04:55 Partly Cloudy 60 15.3 56 13.4 89 89 SSE 10 17 29.74 1007 10 16.0934 0 0
5:15 am 05:15 Mostly Cloudy 59 15 56 13.4 90 90 S 14 22 29.74 1007 10 16.0934 0 0
5:35 am 05:35 Mostly Cloudy 59 15 56 13.5 91 91 S 13 20 29.74 1007 10 16.0934 0 0
5:55 am 05:55 Cloudy 59 15.1 56 13.6 91 91 S 13 20 29.74 1007 10 16.0934 0 0
6:15 am 06:15 Cloudy 60 15.3 57 13.8 91 91 S 12 19 29.74 1007 10 16.0934 0 0
6:35 am 06:35 Cloudy 60 15.3 57 13.8 91 91 S 8 13 29.77 1008 10 16.0934 0 0
6:55 am 06:55 Cloudy 60 15.5 57 14 91 91 S 6 9 29.77 1008 10 16.0934 0 0
7:15 am 07:15 Cloudy 60 15.6 57 14 90 90 S 7 11 29.77 1008 10 16.0934 0 0
7:35 am 07:35 Cloudy 60 15.6 57 14 90 90 SSE 6 9 29.77 1008 10 16.0934 0 0
7:55 am 07:55 Cloudy 60 15.7 57 14 90 90 SSE 12 19 29.77 1008 7 11.26538 0 0
8:15 am 08:15 Cloudy 61 16 57 14.1 89 89 S 6 9 29.8 1009 7 11.26538 0 0
8:35 am 08:35 Cloudy 61 16.1 57 14 87 87 S 9 15 29.8 1009 10 16.0934 0 0
8:55 am 08:55 Cloudy 62 16.6 57 14.1 85 85 S 12 19 29.77 1008 10 16.0934 0 0
9:15 am 09:15 Cloudy 63 17 57 13.8 82 82 SSW 8 13 29.8 1009 10 16.0934 0 0
9:35 am 09:35 Cloudy 62 16.9 56 13.6 81 81 W 5 7 29.83 1010 10 16.0934 0 0
9:55 am 09:55 Cloudy 62 16.8 56 13.5 81 81 NW 8 13 29.83 1010 10 16.0934 0 0
10:15 am 10:15 Cloudy 58 14.3 52 11.1 81 81 N 13 20 29.88 1012 10 16.0934 0 0
10:35 am 10:35 Cloudy 58 14.6 53 11.9 84 84 N 9 15 29.88 1012 10 16.0934 0 0
10:55 am 10:55 undefined N/A N/A N/A undefined N/A N/A N/A 0 0
11:15 am 11:15 Cloudy 59 14.9 51 10.8 77 77 N 15 24 29.88 1012 10 16.0934 0 0
11:35 am 11:35 Cloudy 58 14.5 50 10 75 75 N 14 22 29.88 1012 10 16.0934 0 0
11:55 am 11:55 Mostly Cloudy 60 15.5 51 10.3 71 71 NNE 12 19 29.88 1012 10 16.0934 0 0
12:15 pm 12:15 Partly Cloudy 64 17.5 52 10.9 65 65 NNE 10 17 29.85 1011 10 16.0934 0 0
12:35 pm 12:35 Sunny 63 17.4 51 10.6 65 65 NNE 10 17 29.85 1011 10 16.0934 0 0
12:55 pm 12:55 Sunny 65 18.3 52 10.9 62 62 NNE 9 15 29.85 1011 10 16.0934 0 0
1:15 pm 13:15 Sunny 67 19.5 52 11.1 58 58 ENE 10 17 29.83 1010 10 16.0934 0 0
1:35 pm 13:35 Sunny 68 19.9 51 10.7 56 56 ENE 10 17 29.8 1009 10 16.0934 0 0
1:55 pm 13:55 Sunny 69 20.8 50 10 50 50 NE 14 22 29.8 1009 10 16.0934 0 0
2:15 pm 14:15 Sunny 69 20.4 49 9.3 49 49 NE 10 17 29.8 1009 10 16.0934 0 0
2:35 pm 14:35 Sunny 68 20.2 49 9.4 50 50 ENE 12 19 29.77 1008 10 16.0934 0 0
2:55 pm 14:55 Sunny 69 20.8 49 9.4 48 48 E 17 28 29.74 1007 10 16.0934 0 0
3:15 pm 15:15 Sunny 71 21.8 49 9.6 46 46 E 12 19 29.71 1006 10 16.0934 0 0
3:35 pm 15:35 Sunny 72 22.1 49 9.5 45 45 ENE 12 19 29.71 1006 10 16.0934 0 0
3:55 pm 15:55 Sunny 73 22.5 48 9 42 42 ENE 13 20 29.71 1006 10 16.0934 0 0
4:15 pm 16:15 Sunny 72 22.3 48 8.8 42 42 NE 15 24 29.74 1007 10 16.0934 0 0
4:35 pm 16:35 Sunny 71 21.8 48 9 44 44 NNE 10 17 29.77 1008 10 16.0934 0 0
4:55 pm 16:55 Sunny 73 22.5 48 8.8 42 42 NE 9 15 29.77 1008 7 11.26538 0 0
5:15 pm 17:15 Sunny 72 22.1 48 8.8 43 43 NE 10 17 29.74 1007 10 16.0934 0 0
5:35 pm 17:35 Sunny 70 21.3 49 9.4 47 47 ENE 12 19 29.77 1008 10 16.0934 0 0
5:55 pm 17:55 Sunny 72 22 48 9.1 44 44 NE 9 15 29.74 1007 10 16.0934 0 0
6:15 pm 18:15 Sunny 71 21.4 49 9.4 46 46 NE 9 15 29.77 1008 10 16.0934 0 0
6:35 pm 18:35 Sunny 70 21 50 10.2 50 50 E 9 15 29.77 1008 10 16.0934 0 0
6:55 pm 18:55 Sunny 67 19.5 50 9.9 54 54 E 10 17 29.77 1008 10 16.0934 0 0
7:15 pm 19:15 Sunny 65 18.2 51 10.3 60 60 NNE 6 9 29.83 1010 10 16.0934 0 0
7:35 pm 19:35 Clear 64 17.5 50 10.2 62 62 NE 7 11 29.8 1009 10 16.0934 0 0
7:55 pm 19:55 Clear 63 17.1 50 10.1 64 64 NNE 7 11 29.83 1010 10 16.0934 0 0
8:15 pm 20:15 Clear 62 16.8 51 10.3 66 66 N 6 9 29.83 1010 10 16.0934 0 0
8:35 pm 20:35 Clear 62 16.7 50 10.2 66 66 NNE 5 7 29.83 1010 10 16.0934 0 0
8:55 pm 20:55 Clear 62 16.5 50 10.1 66 66 NNE 6 9 29.85 1011 10 16.0934 0 0
9:15 pm 21:15 Clear 61 16 50 10.2 69 69 N 6 9 29.85 1011 10 16.0934 0 0
9:35 pm 21:35 Clear 61 15.9 51 10.3 70 70 NNE 5 7 29.85 1011 10 16.0934 0 0
9:55 pm 21:55 Clear 60 15.8 51 10.3 70 70 NE 5 7 29.85 1011 10 16.0934 0 0
10:15 pm 22:15 Clear 60 15.8 51 10.4 70 70 NNE 3 6 29.85 1011 10 16.0934 0 0
10:35 pm 22:35 Clear 61 16 51 10.5 70 70 NE 5 7 29.85 1011 10 16.0934 0 0
10:55 pm 22:55 Clear 60 15.7 51 10.4 71 71 NE 8 13 29.85 1011 10 16.0934 0 0
11:15 pm 23:15 Clear 60 15.5 51 10.6 73 73 NE 8 13 29.91 1013 10 16.0934 0 0
11:35 pm 23:35 Clear 59 15 51 10.7 76 76 ENE 10 17 29.88 1012 10 16.0934 0 0
11:55 pm 23:55 Clear 58 14.7 51 10.7 77 77 NE 8 13 29.91 1013 10 16.0934 0 0

Powered by AerisWeather